Weather History for Bradford, PA

Change the Weather History Date:

Monday, December 30, 2013

  Actual Average Record
Temperature  
Mean Temperature 24 °F 22 °F  
Max Temperature 34 °F 30 °F 57 °F (1990)
Min Temperature 13 °F 14 °F -14 °F (1976)
Degree Days  
Heating Degree Days 41 38  
Month to date heating degree days 1099 1027  
Since 1 July heating degree days 2887 2862  
Cooling Degree Days 0 0  
Month to date cooling degree days 0 0  
Year to date cooling degree days 334 193  
Moisture  
Dew Point 12 °F    
Average Humidity 72    
Maximum Humidity 85    
Minimum Humidity 59    
Precipitation  
Precipitation T in 0.10 in 1.58 in (1990)
Month to date precipitation 2.82 3.30  
Year to date precipitation 34.85 44.36  
Sea Level Pressure  
Sea Level Pressure 30.01 in    
Wind  
Wind Speed 10 mph (WNW)    
Max Wind Speed 22 mph    
Max Gust Speed 26 mph    
Visibility 7 miles    
Events Snow    
T = Trace of Precipitation, MM = Missing Value Source: NWS Daily Summary

Daily Weather History Graph

Daily Weather History Graph

Search for Another Location

Airport:

Trip Planner

Search our weather history database for the weather conditions in past years. The results will help you decide how hot, cold, wet, or windy it might be!

Date:

Astronomy

Dec. 30, 2013 Rise Set
Actual Time 7:41 AM EST 4:52 PM EST
Civil Twilight 7:10 AM EST 5:24 PM EST
Nautical Twilight 6:35 AM EST 5:59 PM EST
Astronomical Twilight 6:01 AM EST 6:33 PM EST
Moon 5:28 AM EST (12/30) 3:24 PM EST (12/30)
Length of Visible Light 10h 14m
Length of Day
9h 11m
Waning Crescent, 5% of the Moon is Illuminated
Dec 30
Waning Crescent
Jan 1
New
Jan 7
First Quarter
Jan 15
Full
Jan 24
Last Quarter

Hourly Weather History & Observations

Time (EST) Temp. Windchill Dew Point Humidity Pressure Visibility Wind Dir Wind Speed Gust Speed Precip Events Conditions
12:34 AM 33.1 °F 23.0 °F 28.9 °F 85% 29.71 in 7.0 mi West 15.0 mph 21.9 mph N/A   Overcast
12:53 AM 33.1 °F 25.5 °F 28.9 °F 85% 29.76 in 6.0 mi West 9.2 mph - N/A   Overcast
1:53 AM 28.0 °F 15.7 °F 25.0 °F 88% 29.81 in 8.0 mi WNW 17.3 mph - 0.00 in   Overcast
2:53 AM 26.1 °F 14.5 °F 23.0 °F 88% 29.85 in 10.0 mi WNW 13.8 mph - N/A   Overcast
3:43 AM 24.1 °F 9.0 °F 19.0 °F 81% 29.82 in 10.0 mi NW 21.9 mph 25.3 mph N/A   Overcast
3:53 AM 24.1 °F 10.6 °F 19.0 °F 81% 29.89 in 10.0 mi WNW 17.3 mph 26.5 mph N/A   Overcast
5:53 AM 21.9 °F 9.8 °F 18.0 °F 85% 29.96 in 7.0 mi WNW 12.7 mph - 0.00 in Snow Light Snow
6:40 AM 21.0 °F 8.1 °F 15.1 °F 78% 29.93 in 6.0 mi NW 13.8 mph 21.9 mph 0.00 in Snow Light Snow
6:53 AM 21.0 °F 10.6 °F 15.1 °F 78% 30.01 in 5.0 mi WNW 9.2 mph - 0.00 in Snow Light Snow
7:01 AM 19.9 °F 6.7 °F 14.0 °F 78% 29.95 in 4.0 mi NW 13.8 mph 20.7 mph 0.00 in Snow Light Snow
7:29 AM 19.9 °F 7.3 °F 15.1 °F 81% 29.96 in 1.8 mi NW 12.7 mph - 0.00 in Snow Light Snow
7:53 AM 19.0 °F 4.5 °F 12.9 °F 77% 30.04 in 1.2 mi NW 16.1 mph 21.9 mph 0.00 in Snow Light Snow
8:27 AM 19.0 °F 5.0 °F 12.0 °F 74% 29.99 in 3.0 mi NW 15.0 mph - 0.00 in Snow Light Snow
8:32 AM 19.0 °F 6.8 °F 12.0 °F 74% 29.99 in 1.8 mi WNW 11.5 mph - 0.00 in Snow Light Snow
9:11 AM 18.0 °F 3.6 °F 10.9 °F 74% 30.01 in 1.8 mi NW 15.0 mph - 0.00 in Snow Light Snow
9:25 AM 18.0 °F 6.1 °F 10.0 °F 71% 30.02 in 3.0 mi WNW 10.4 mph - 0.00 in Snow Light Snow
9:53 AM 17.1 °F 4.3 °F 10.0 °F 74% 30.11 in 2.5 mi WNW 11.5 mph - 0.00 in Snow Light Snow
10:08 AM 18.0 °F 4.8 °F 9.0 °F 68% 30.03 in 9.0 mi WNW 12.7 mph 18.4 mph 0.00 in   Overcast
11:53 AM 17.1 °F 3.6 °F 7.0 °F 65% 30.13 in 4.0 mi WNW 12.7 mph - 0.00 in Snow Light Snow
12:53 PM 16.0 °F 1.7 °F 3.9 °F 59% 30.12 in 10.0 mi NW 13.8 mph - 0.00 in   Overcast
1:53 PM 16.0 °F 6.3 °F 3.9 °F 59% 30.12 in 10.0 mi WNW 6.9 mph - 0.00 in   Overcast
3:53 PM 15.1 °F 6.4 °F 3.9 °F 61% 30.15 in 10.0 mi WNW 5.8 mph - N/A   Overcast
5:53 PM 14.0 °F 5.1 °F 3.9 °F 64% 30.16 in 9.0 mi NW 5.8 mph - 0.00 in Snow Light Snow
6:53 PM 14.0 °F 5.1 °F 3.9 °F 64% 30.17 in 10.0 mi WNW 5.8 mph - 0.00 in   Overcast
8:53 PM 14.0 °F 6.5 °F 3.9 °F 64% 30.17 in 10.0 mi WNW 4.6 mph - N/A   Overcast
9:53 PM 14.0 °F - 3.9 °F 64% 30.17 in 10.0 mi Calm Calm - N/A   Overcast
10:53 PM 14.0 °F 8.2 °F 3.9 °F 64% 30.15 in 10.0 mi West 3.5 mph - N/A   Overcast